Year,Month,Day,Hour,Minute,Value (Times are PST for temperature in C)
2010,04,15,00,00,4.80
2010,04,15,00,01,4.80
2010,04,15,00,02,4.80
2010,04,15,00,03,4.80
2010,04,15,00,04,4.80
2010,04,15,00,05,4.80
2010,04,15,00,06,4.80
2010,04,15,00,07,4.80
2010,04,15,00,08,4.80
2010,04,15,00,09,4.80
2010,04,15,00,10,4.80
2010,04,15,00,11,4.80
2010,04,15,00,12,4.80
2010,04,15,00,13,4.80
2010,04,15,00,14,4.70
2010,04,15,00,15,4.70
2010,04,15,00,16,4.70
2010,04,15,00,17,4.70
2010,04,15,00,18,4.70
2010,04,15,00,19,4.70
2010,04,15,00,20,4.70
2010,04,15,00,21,4.70
2010,04,15,00,22,4.70
2010,04,15,00,23,4.70
2010,04,15,00,24,4.70
2010,04,15,00,25,4.70
2010,04,15,00,26,4.70
2010,04,15,00,27,4.70
2010,04,15,00,28,4.70
2010,04,15,00,29,4.70
2010,04,15,00,30,4.70
2010,04,15,00,31,4.70
2010,04,15,00,32,4.70
2010,04,15,00,33,4.60
2010,04,15,00,34,4.60
2010,04,15,00,35,4.60
2010,04,15,00,36,4.60
2010,04,15,00,37,4.50
2010,04,15,00,38,4.50
2010,04,15,00,39,4.50
2010,04,15,00,40,4.50
2010,04,15,00,41,4.50
2010,04,15,00,42,4.50
2010,04,15,00,43,4.60
2010,04,15,00,44,4.60
2010,04,15,00,45,4.60
2010,04,15,00,46,4.60
2010,04,15,00,47,4.60
2010,04,15,00,48,4.60
2010,04,15,00,49,4.60
2010,04,15,00,50,4.70
2010,04,15,00,51,4.70
2010,04,15,00,52,4.70
2010,04,15,00,53,4.70
2010,04,15,00,54,4.70
2010,04,15,00,55,4.70
2010,04,15,00,56,4.70
2010,04,15,00,57,4.70
2010,04,15,00,58,4.70
2010,04,15,00,59,4.70
2010,04,15,01,00,4.70
2010,04,15,01,01,4.70
2010,04,15,01,02,4.70
2010,04,15,01,03,4.70
2010,04,15,01,04,4.70
2010,04,15,01,05,4.70
2010,04,15,01,06,4.70
2010,04,15,01,07,4.70
2010,04,15,01,08,4.70
2010,04,15,01,09,4.70
2010,04,15,01,10,4.70
2010,04,15,01,11,4.70
2010,04,15,01,12,4.60
2010,04,15,01,13,4.60
2010,04,15,01,14,4.60
2010,04,15,01,15,4.60
2010,04,15,01,16,4.60
2010,04,15,01,17,4.60
2010,04,15,01,18,4.60
2010,04,15,01,19,4.60
2010,04,15,01,20,4.60
2010,04,15,01,21,4.60
2010,04,15,01,22,4.50
2010,04,15,01,23,4.50
2010,04,15,01,24,4.40
2010,04,15,01,25,4.40
2010,04,15,01,26,4.40
2010,04,15,01,27,4.40
2010,04,15,01,28,4.30
2010,04,15,01,29,4.30
2010,04,15,01,30,4.30
2010,04,15,01,31,4.30
2010,04,15,01,32,4.30
2010,04,15,01,33,4.30
2010,04,15,01,34,4.20
2010,04,15,01,35,4.20
2010,04,15,01,36,4.20
2010,04,15,01,37,4.20
2010,04,15,01,38,4.10
2010,04,15,01,39,4.10
2010,04,15,01,40,4.10
2010,04,15,01,41,4.10
2010,04,15,01,42,4.10
2010,04,15,01,43,4.10
2010,04,15,01,44,4.10
2010,04,15,01,45,4.10
2010,04,15,01,46,4.10
2010,04,15,01,47,4.20
2010,04,15,01,48,4.20
2010,04,15,01,49,4.20
2010,04,15,01,50,4.20
2010,04,15,01,51,4.20
2010,04,15,01,52,4.20
2010,04,15,01,53,4.20
2010,04,15,01,54,4.20
2010,04,15,01,55,4.20
2010,04,15,01,56,4.20
2010,04,15,01,57,4.20
2010,04,15,01,58,4.20
2010,04,15,01,59,4.20
2010,04,15,02,00,4.20
2010,04,15,02,01,4.20
2010,04,15,02,02,4.20
2010,04,15,02,03,4.20
2010,04,15,02,04,4.20
2010,04,15,02,05,4.20
2010,04,15,02,06,4.20
2010,04,15,02,07,4.20
2010,04,15,02,08,4.20
2010,04,15,02,09,4.20
2010,04,15,02,10,4.20
2010,04,15,02,11,4.20
2010,04,15,02,12,4.20
2010,04,15,02,13,4.20
2010,04,15,02,14,4.20
2010,04,15,02,15,4.20
2010,04,15,02,16,4.30
2010,04,15,02,17,4.30
2010,04,15,02,18,4.30
2010,04,15,02,19,4.30
2010,04,15,02,20,4.30
2010,04,15,02,21,4.30
2010,04,15,02,22,4.30
2010,04,15,02,23,4.30
2010,04,15,02,24,4.30
2010,04,15,02,25,4.30
2010,04,15,02,26,4.30
2010,04,15,02,27,4.30
2010,04,15,02,28,4.30
2010,04,15,02,29,4.30
2010,04,15,02,30,4.30
2010,04,15,02,31,4.30
2010,04,15,02,32,4.30
2010,04,15,02,33,4.30
2010,04,15,02,34,4.30
2010,04,15,02,35,4.30
2010,04,15,02,36,4.30
2010,04,15,02,37,4.30
2010,04,15,02,38,4.30
2010,04,15,02,39,4.40
2010,04,15,02,40,4.40
2010,04,15,02,41,4.40
2010,04,15,02,42,4.40
2010,04,15,02,43,4.40
2010,04,15,02,44,4.40
2010,04,15,02,45,4.40
2010,04,15,02,46,4.30
2010,04,15,02,47,4.30
2010,04,15,02,48,4.30
2010,04,15,02,49,4.30
2010,04,15,02,50,4.30
2010,04,15,02,51,4.30
2010,04,15,02,52,4.30
2010,04,15,02,53,4.30
2010,04,15,02,54,4.30
2010,04,15,02,55,4.30
2010,04,15,02,56,4.30
2010,04,15,02,57,4.30
2010,04,15,02,58,4.30
2010,04,15,02,59,4.30
2010,04,15,03,00,4.40
2010,04,15,03,01,4.40
2010,04,15,03,02,4.40
2010,04,15,03,03,4.40
2010,04,15,03,04,4.40
2010,04,15,03,05,4.40
2010,04,15,03,06,4.40
2010,04,15,03,07,4.40
2010,04,15,03,08,4.40
2010,04,15,03,09,4.40
2010,04,15,03,10,4.30
2010,04,15,03,11,4.30
2010,04,15,03,12,4.30
2010,04,15,03,13,4.30
2010,04,15,03,14,4.30
2010,04,15,03,15,4.30
2010,04,15,03,16,4.30
2010,04,15,03,17,4.30
2010,04,15,03,18,4.30
2010,04,15,03,19,4.30
2010,04,15,03,20,4.30
2010,04,15,03,21,4.30
2010,04,15,03,22,4.30
2010,04,15,03,23,4.30
2010,04,15,03,24,4.40
2010,04,15,03,25,4.40
2010,04,15,03,26,4.40
2010,04,15,03,27,4.40
2010,04,15,03,28,4.40
2010,04,15,03,29,4.40
2010,04,15,03,30,4.40
2010,04,15,03,31,4.30
2010,04,15,03,32,4.30
2010,04,15,03,33,4.30
2010,04,15,03,34,4.30
2010,04,15,03,35,4.30
2010,04,15,03,36,4.30
2010,04,15,03,37,4.30
2010,04,15,03,38,4.20
2010,04,15,03,39,4.20
2010,04,15,03,40,4.20
2010,04,15,03,41,4.20
2010,04,15,03,42,4.20
2010,04,15,03,43,4.20
2010,04,15,03,44,4.20
2010,04,15,03,45,4.20
2010,04,15,03,46,4.20
2010,04,15,03,47,4.20
2010,04,15,03,48,4.20
2010,04,15,03,49,4.10
2010,04,15,03,50,4.10
2010,04,15,03,51,4.10
2010,04,15,03,52,4.10
2010,04,15,03,53,4.10
2010,04,15,03,54,4.10
2010,04,15,03,55,4.10
2010,04,15,03,56,4.10
2010,04,15,03,57,4.10
2010,04,15,03,58,4.10
2010,04,15,03,59,4.10
2010,04,15,04,00,4.10
2010,04,15,04,01,4.10
2010,04,15,04,02,4.00
2010,04,15,04,03,4.00
2010,04,15,04,04,3.90
2010,04,15,04,05,3.90
2010,04,15,04,06,3.80
2010,04,15,04,07,3.80
2010,04,15,04,08,3.80
2010,04,15,04,09,3.80
2010,04,15,04,10,3.80
2010,04,15,04,11,3.80
2010,04,15,04,12,3.80
2010,04,15,04,13,3.80
2010,04,15,04,14,3.80
2010,04,15,04,15,3.80
2010,04,15,04,16,3.80
2010,04,15,04,17,3.80
2010,04,15,04,18,3.80
2010,04,15,04,19,3.80
2010,04,15,04,20,3.80
2010,04,15,04,21,3.80
2010,04,15,04,22,3.80
2010,04,15,04,23,3.80
2010,04,15,04,24,3.80
2010,04,15,04,25,3.80
2010,04,15,04,26,3.80
2010,04,15,04,27,3.80
2010,04,15,04,28,3.80
2010,04,15,04,29,3.80
2010,04,15,04,30,3.80
2010,04,15,04,31,3.80
2010,04,15,04,32,3.80
2010,04,15,04,33,3.70
2010,04,15,04,34,3.70
2010,04,15,04,35,3.70
2010,04,15,04,36,3.70
2010,04,15,04,37,3.70
2010,04,15,04,38,3.70
2010,04,15,04,39,3.70
2010,04,15,04,40,3.70
2010,04,15,04,41,3.70
2010,04,15,04,42,3.70
2010,04,15,04,43,3.70
2010,04,15,04,44,3.70
2010,04,15,04,45,3.70
2010,04,15,04,46,3.70
2010,04,15,04,47,3.70
2010,04,15,04,48,3.70
2010,04,15,04,49,3.70
2010,04,15,04,50,3.70
2010,04,15,04,51,3.80
2010,04,15,04,52,3.80
2010,04,15,04,53,3.70
2010,04,15,04,54,3.80
2010,04,15,04,55,3.80
2010,04,15,04,56,3.70
2010,04,15,04,57,3.70
2010,04,15,04,58,3.80
2010,04,15,04,59,3.80
2010,04,15,05,00,3.80
2010,04,15,05,01,3.80
2010,04,15,05,02,3.80
2010,04,15,05,03,3.80
2010,04,15,05,04,3.80
2010,04,15,05,05,3.80
2010,04,15,05,06,3.80
2010,04,15,05,07,3.80
2010,04,15,05,08,3.80
2010,04,15,05,09,3.80
2010,04,15,05,10,3.80
2010,04,15,05,11,3.80
2010,04,15,05,12,3.80
2010,04,15,05,13,3.90
2010,04,15,05,14,3.90
2010,04,15,05,15,4.00
2010,04,15,05,16,4.10
2010,04,15,05,17,4.20
2010,04,15,05,18,4.30
2010,04,15,05,19,4.30
2010,04,15,05,20,4.30
2010,04,15,05,21,4.30
2010,04,15,05,22,4.30
2010,04,15,05,23,4.30
2010,04,15,05,24,4.20
2010,04,15,05,25,4.20
2010,04,15,05,26,4.20
2010,04,15,05,27,4.20
2010,04,15,05,28,4.20
2010,04,15,05,29,4.20
2010,04,15,05,30,4.10
2010,04,15,05,31,4.10
2010,04,15,05,32,4.10
2010,04,15,05,33,4.10
2010,04,15,05,34,4.10
2010,04,15,05,35,4.10
2010,04,15,05,36,4.10
2010,04,15,05,37,4.10
2010,04,15,05,38,4.10
2010,04,15,05,39,4.00
2010,04,15,05,40,4.00
2010,04,15,05,41,4.00
2010,04,15,05,42,3.90
2010,04,15,05,43,3.90
2010,04,15,05,44,3.90
2010,04,15,05,45,3.90
2010,04,15,05,46,3.90
2010,04,15,05,47,3.90
2010,04,15,05,48,3.90
2010,04,15,05,49,3.90
2010,04,15,05,50,3.90
2010,04,15,05,51,3.80
2010,04,15,05,52,3.80
2010,04,15,05,53,3.80
2010,04,15,05,54,3.80
2010,04,15,05,55,3.80
2010,04,15,05,56,3.80
2010,04,15,05,57,3.80
2010,04,15,05,58,3.80
2010,04,15,05,59,3.80
2010,04,15,06,00,3.80
2010,04,15,06,01,3.80
2010,04,15,06,02,3.80
2010,04,15,06,03,3.80
2010,04,15,06,04,3.80
2010,04,15,06,05,3.80
2010,04,15,06,06,3.80
2010,04,15,06,07,3.80
2010,04,15,06,08,3.80
2010,04,15,06,09,3.80
2010,04,15,06,10,3.80
2010,04,15,06,11,3.80
2010,04,15,06,12,3.80
2010,04,15,06,13,3.80
2010,04,15,06,14,3.80
2010,04,15,06,15,3.80
2010,04,15,06,16,3.80
2010,04,15,06,17,3.80
2010,04,15,06,18,3.80
2010,04,15,06,19,3.80
2010,04,15,06,20,3.80
2010,04,15,06,21,3.80
2010,04,15,06,22,3.80
2010,04,15,06,23,3.80
2010,04,15,06,24,3.80
2010,04,15,06,25,3.80
2010,04,15,06,26,3.80
2010,04,15,06,27,3.80
2010,04,15,06,28,3.80
2010,04,15,06,29,3.80
2010,04,15,06,30,3.80
2010,04,15,06,31,3.70
2010,04,15,06,32,3.70
2010,04,15,06,33,3.70
2010,04,15,06,34,3.70
2010,04,15,06,35,3.70
2010,04,15,06,36,3.70
2010,04,15,06,37,3.70
2010,04,15,06,38,3.70
2010,04,15,06,39,3.70
2010,04,15,06,40,3.70
2010,04,15,06,41,3.70
2010,04,15,06,42,3.70
2010,04,15,06,43,3.70
2010,04,15,06,44,3.80
2010,04,15,06,45,3.80
2010,04,15,06,46,3.80
2010,04,15,06,47,3.80
2010,04,15,06,48,3.80
2010,04,15,06,49,3.90
2010,04,15,06,50,4.00
2010,04,15,06,51,4.00
2010,04,15,06,52,4.00
2010,04,15,06,53,4.10
2010,04,15,06,54,4.10
2010,04,15,06,55,4.10
2010,04,15,06,56,4.10
2010,04,15,06,57,4.10
2010,04,15,06,58,4.00
2010,04,15,06,59,4.00
2010,04,15,07,00,4.00
2010,04,15,07,01,4.00
2010,04,15,07,02,4.00
2010,04,15,07,03,4.00
2010,04,15,07,04,4.00
2010,04,15,07,05,4.00
2010,04,15,07,06,3.90
2010,04,15,07,07,3.90
2010,04,15,07,08,3.90
2010,04,15,07,09,3.90
2010,04,15,07,10,3.90
2010,04,15,07,11,3.90
2010,04,15,07,12,3.90
2010,04,15,07,13,3.90
2010,04,15,07,14,3.90
2010,04,15,07,15,3.90
2010,04,15,07,16,3.90
2010,04,15,07,17,3.90
2010,04,15,07,18,3.90
2010,04,15,07,19,3.90
2010,04,15,07,20,3.90
2010,04,15,07,21,3.90
2010,04,15,07,22,3.90
2010,04,15,07,23,3.90
2010,04,15,07,24,4.00
2010,04,15,07,25,4.00
2010,04,15,07,26,4.10
2010,04,15,07,27,4.10
2010,04,15,07,28,4.10
2010,04,15,07,29,4.10
2010,04,15,07,30,4.20
2010,04,15,07,31,4.20
2010,04,15,07,32,4.30
2010,04,15,07,33,4.30
2010,04,15,07,34,4.30
2010,04,15,07,35,4.40
2010,04,15,07,36,4.40
2010,04,15,07,37,4.40
2010,04,15,07,38,4.50
2010,04,15,07,39,4.50
2010,04,15,07,40,4.50
2010,04,15,07,41,4.60
2010,04,15,07,42,4.60
2010,04,15,07,43,4.60
2010,04,15,07,44,4.60
2010,04,15,07,45,4.60
2010,04,15,07,46,4.70
2010,04,15,07,47,4.70
2010,04,15,07,48,4.70
2010,04,15,07,49,4.70
2010,04,15,07,50,4.80
2010,04,15,07,51,4.80
2010,04,15,07,52,4.90
2010,04,15,07,53,4.90
2010,04,15,07,54,5.00
2010,04,15,07,55,5.10
2010,04,15,07,56,5.20
2010,04,15,07,57,5.30
2010,04,15,07,58,5.40
2010,04,15,07,59,5.40
2010,04,15,08,00,5.50
2010,04,15,08,01,5.60
2010,04,15,08,02,5.70
2010,04,15,08,03,5.80
2010,04,15,08,04,5.90
2010,04,15,08,05,5.90
2010,04,15,08,06,6.00
2010,04,15,08,07,6.10
2010,04,15,08,08,6.20
2010,04,15,08,09,6.30
2010,04,15,08,10,6.40
2010,04,15,08,11,6.50
2010,04,15,08,12,6.50
2010,04,15,08,13,6.70
2010,04,15,08,14,6.70
2010,04,15,08,15,6.90
2010,04,15,08,16,6.90
2010,04,15,08,17,7.00
2010,04,15,08,18,7.20
2010,04,15,08,19,7.20
2010,04,15,08,20,7.30
2010,04,15,08,21,7.40
2010,04,15,08,22,7.50
2010,04,15,08,23,7.50
2010,04,15,08,24,7.60
2010,04,15,08,25,7.70
2010,04,15,08,26,7.80
2010,04,15,08,27,7.80
2010,04,15,08,28,7.90
2010,04,15,08,29,7.90
2010,04,15,08,30,8.00
2010,04,15,08,31,8.00
2010,04,15,08,32,8.10
2010,04,15,08,33,8.10
2010,04,15,08,34,8.10
2010,04,15,08,35,8.10
2010,04,15,08,36,8.10
2010,04,15,08,37,8.20
2010,04,15,08,38,8.20
2010,04,15,08,39,8.30
2010,04,15,08,40,8.30
2010,04,15,08,41,8.40
2010,04,15,08,42,8.40
2010,04,15,08,43,8.50
2010,04,15,08,44,8.50
2010,04,15,08,45,8.60
2010,04,15,08,46,8.60
2010,04,15,08,47,8.60
2010,04,15,08,48,8.60
2010,04,15,08,49,8.60
2010,04,15,08,50,8.60
2010,04,15,08,51,8.60
2010,04,15,08,52,8.60
2010,04,15,08,53,8.60
2010,04,15,08,54,8.60
2010,04,15,08,55,8.60
2010,04,15,08,56,8.60
2010,04,15,08,57,8.60
2010,04,15,08,58,8.70
2010,04,15,08,59,8.70
2010,04,15,09,00,8.70
2010,04,15,09,01,8.70
2010,04,15,09,02,8.80
2010,04,15,09,03,8.80
2010,04,15,09,04,8.90
2010,04,15,09,05,9.00
2010,04,15,09,06,9.10
2010,04,15,09,07,9.20
2010,04,15,09,08,9.20
2010,04,15,09,09,9.30
2010,04,15,09,10,9.40
2010,04,15,09,11,9.40
2010,04,15,09,12,9.50
2010,04,15,09,13,9.60
2010,04,15,09,14,9.70
2010,04,15,09,15,9.80
2010,04,15,09,16,9.90
2010,04,15,09,17,10.00
2010,04,15,09,18,10.10
2010,04,15,09,19,10.30
2010,04,15,09,20,10.40
2010,04,15,09,21,10.50
2010,04,15,09,22,10.70
2010,04,15,09,23,10.90
2010,04,15,09,24,11.10
2010,04,15,09,25,11.20
2010,04,15,09,26,11.40
2010,04,15,09,27,11.50
2010,04,15,09,28,11.70
2010,04,15,09,29,11.80
2010,04,15,09,30,11.90
2010,04,15,09,31,12.10
2010,04,15,09,32,12.20
2010,04,15,09,33,12.30
2010,04,15,09,34,12.30
2010,04,15,09,35,12.30
2010,04,15,09,36,12.30
2010,04,15,09,37,12.30
2010,04,15,09,38,12.30
2010,04,15,09,39,12.30
2010,04,15,09,40,12.30
2010,04,15,09,41,12.20
2010,04,15,09,42,12.30
2010,04,15,09,43,12.30
2010,04,15,09,44,12.30
2010,04,15,09,45,12.30
2010,04,15,09,46,12.30
2010,04,15,09,47,12.30
2010,04,15,09,48,12.30
2010,04,15,09,49,12.20
2010,04,15,09,50,12.20
2010,04,15,09,51,12.20
2010,04,15,09,52,12.10
2010,04,15,09,53,12.00
2010,04,15,09,54,11.90
2010,04,15,09,55,11.90
2010,04,15,09,56,11.80
2010,04,15,09,57,11.90
2010,04,15,09,58,11.90
2010,04,15,09,59,11.90
2010,04,15,10,00,11.90
2010,04,15,10,01,11.90
2010,04,15,10,02,11.90
2010,04,15,10,03,12.00
2010,04,15,10,04,12.00
2010,04,15,10,05,12.10
2010,04,15,10,06,12.20
2010,04,15,10,07,12.30
2010,04,15,10,08,12.30
2010,04,15,10,09,12.30
2010,04,15,10,10,12.40
2010,04,15,10,11,12.40
2010,04,15,10,12,12.40
2010,04,15,10,13,12.40
2010,04,15,10,14,12.40
2010,04,15,10,15,12.40
2010,04,15,10,16,12.40
2010,04,15,10,17,12.40
2010,04,15,10,18,12.40
2010,04,15,10,19,12.40
2010,04,15,10,20,12.30
2010,04,15,10,21,12.40
2010,04,15,10,22,12.30
2010,04,15,10,23,12.30
2010,04,15,10,24,12.30
2010,04,15,10,25,12.30
2010,04,15,10,26,12.20
2010,04,15,10,27,12.20
2010,04,15,10,28,12.20
2010,04,15,10,29,12.20
2010,04,15,10,30,12.20
2010,04,15,10,31,12.20
2010,04,15,10,32,12.20
2010,04,15,10,33,12.20
2010,04,15,10,34,12.20
2010,04,15,10,35,12.20
2010,04,15,10,36,12.20
2010,04,15,10,37,12.30
2010,04,15,10,38,12.30
2010,04,15,10,39,12.20
2010,04,15,10,40,12.30
2010,04,15,10,41,12.30
2010,04,15,10,42,12.30
2010,04,15,10,43,12.30
2010,04,15,10,44,12.30
2010,04,15,10,45,12.40
2010,04,15,10,46,12.50
2010,04,15,10,47,12.50
2010,04,15,10,48,12.60
2010,04,15,10,49,12.60
2010,04,15,10,50,12.70
2010,04,15,10,51,12.70
2010,04,15,10,52,12.70
2010,04,15,10,53,12.70
2010,04,15,10,54,12.70
2010,04,15,10,55,12.60
2010,04,15,10,56,12.60
2010,04,15,10,57,12.60
2010,04,15,10,58,12.50
2010,04,15,10,59,12.50
2010,04,15,11,00,12.40
2010,04,15,11,01,12.40
2010,04,15,11,02,12.30
2010,04,15,11,03,12.30
2010,04,15,11,04,12.30
2010,04,15,11,05,12.30
2010,04,15,11,06,12.30
2010,04,15,11,07,12.40
2010,04,15,11,08,12.50
2010,04,15,11,09,12.50
2010,04,15,11,10,12.50
2010,04,15,11,11,12.50
2010,04,15,11,12,12.50
2010,04,15,11,13,12.40
2010,04,15,11,14,12.40
2010,04,15,11,15,12.40
2010,04,15,11,16,12.50
2010,04,15,11,17,12.60
2010,04,15,11,18,12.70
2010,04,15,11,19,12.70
2010,04,15,11,20,12.70
2010,04,15,11,21,12.80
2010,04,15,11,22,12.80
2010,04,15,11,23,12.80
2010,04,15,11,24,12.80
2010,04,15,11,25,12.80
2010,04,15,11,26,12.90
2010,04,15,11,27,12.90
2010,04,15,11,28,12.90
2010,04,15,11,29,12.90
2010,04,15,11,30,13.00
2010,04,15,11,31,12.90
2010,04,15,11,32,12.90
2010,04,15,11,33,12.90
2010,04,15,11,34,12.90
2010,04,15,11,35,12.90
2010,04,15,11,36,12.80
2010,04,15,11,37,12.80
2010,04,15,11,38,12.80
2010,04,15,11,39,12.80
2010,04,15,11,40,12.80
2010,04,15,11,41,12.80
2010,04,15,11,42,12.80
2010,04,15,11,43,12.80
2010,04,15,11,44,12.80
2010,04,15,11,45,12.80
2010,04,15,11,46,12.80
2010,04,15,11,47,12.70
2010,04,15,11,48,12.60
2010,04,15,11,49,12.50
2010,04,15,11,50,12.40
2010,04,15,11,51,12.30
2010,04,15,11,52,12.30
2010,04,15,11,53,12.20
2010,04,15,11,54,12.30
2010,04,15,11,55,12.20
2010,04,15,11,56,12.10
2010,04,15,11,57,12.00
2010,04,15,11,58,12.00
2010,04,15,11,59,12.00
2010,04,15,12,00,12.00
2010,04,15,12,01,12.00
2010,04,15,12,02,12.00
2010,04,15,12,03,11.90
2010,04,15,12,04,11.80
2010,04,15,12,05,11.80
2010,04,15,12,06,11.70
2010,04,15,12,07,11.60
2010,04,15,12,08,11.60
2010,04,15,12,09,11.50
2010,04,15,12,10,11.50
2010,04,15,12,11,11.40
2010,04,15,12,12,11.50
2010,04,15,12,13,11.50
2010,04,15,12,14,11.60
2010,04,15,12,15,11.60
2010,04,15,12,16,11.60
2010,04,15,12,17,11.50
2010,04,15,12,18,11.50
2010,04,15,12,19,11.50
2010,04,15,12,20,11.50
2010,04,15,12,21,11.50
2010,04,15,12,22,11.50
2010,04,15,12,23,11.40
2010,04,15,12,24,11.40
2010,04,15,12,25,11.40
2010,04,15,12,26,11.50
2010,04,15,12,27,11.50
2010,04,15,12,28,11.60
2010,04,15,12,29,11.60
2010,04,15,12,30,11.60
2010,04,15,12,31,11.60
2010,04,15,12,32,11.60
2010,04,15,12,33,11.70
2010,04,15,12,34,11.70
2010,04,15,12,35,11.70
2010,04,15,12,36,11.80
2010,04,15,12,37,11.80
2010,04,15,12,38,11.80
2010,04,15,12,39,11.80
2010,04,15,12,40,11.90
2010,04,15,12,41,11.90
2010,04,15,12,42,11.80
2010,04,15,12,43,11.80
2010,04,15,12,44,11.80
2010,04,15,12,45,11.80
2010,04,15,12,46,11.90
2010,04,15,12,47,11.90
2010,04,15,12,48,11.90
2010,04,15,12,49,11.90
2010,04,15,12,50,11.90
2010,04,15,12,51,12.00
2010,04,15,12,52,12.00
2010,04,15,12,53,12.10
2010,04,15,12,54,12.10
2010,04,15,12,55,12.10
2010,04,15,12,56,12.10
2010,04,15,12,57,12.10
2010,04,15,12,58,12.10
2010,04,15,12,59,12.10
2010,04,15,13,00,12.10
2010,04,15,13,01,12.10
2010,04,15,13,02,12.10
2010,04,15,13,03,12.10
2010,04,15,13,04,12.20
2010,04,15,13,05,12.20
2010,04,15,13,06,12.20
2010,04,15,13,07,12.20
2010,04,15,13,08,12.30
2010,04,15,13,09,12.30
2010,04,15,13,10,12.30
2010,04,15,13,11,12.40
2010,04,15,13,12,12.40
2010,04,15,13,13,12.40
2010,04,15,13,14,12.40
2010,04,15,13,15,12.40
2010,04,15,13,16,12.40
2010,04,15,13,17,12.30
2010,04,15,13,18,12.40
2010,04,15,13,19,12.40
2010,04,15,13,20,12.40
2010,04,15,13,21,12.40
2010,04,15,13,22,12.10
2010,04,15,13,23,11.80
2010,04,15,13,24,11.60
2010,04,15,13,25,11.60
2010,04,15,13,26,11.50
2010,04,15,13,27,11.40
2010,04,15,13,28,11.30
2010,04,15,13,29,11.20
2010,04,15,13,30,11.10
2010,04,15,13,31,11.00
2010,04,15,13,32,10.90
2010,04,15,13,33,10.90
2010,04,15,13,34,10.80
2010,04,15,13,35,10.80
2010,04,15,13,36,10.80
2010,04,15,13,37,10.80
2010,04,15,13,38,10.80
2010,04,15,13,39,10.80
2010,04,15,13,40,10.80
2010,04,15,13,41,10.70
2010,04,15,13,42,10.70
2010,04,15,13,43,10.70
2010,04,15,13,44,10.70
2010,04,15,13,45,10.60
2010,04,15,13,46,10.60
2010,04,15,13,47,10.50
2010,04,15,13,48,10.40
2010,04,15,13,49,10.30
2010,04,15,13,50,10.30
2010,04,15,13,51,10.40
2010,04,15,13,52,10.40
2010,04,15,13,53,10.40
2010,04,15,13,54,10.40
2010,04,15,13,55,10.40
2010,04,15,13,56,10.40
2010,04,15,13,57,10.40
2010,04,15,13,58,10.30
2010,04,15,13,59,10.30
2010,04,15,14,00,10.20
2010,04,15,14,01,10.20
2010,04,15,14,02,10.20
2010,04,15,14,03,10.10
2010,04,15,14,04,10.10
2010,04,15,14,05,10.10
2010,04,15,14,06,10.20
2010,04,15,14,07,10.20
2010,04,15,14,08,10.20
2010,04,15,14,09,10.20
2010,04,15,14,10,10.10
2010,04,15,14,11,10.10
2010,04,15,14,12,10.10
2010,04,15,14,13,10.10
2010,04,15,14,14,10.10
2010,04,15,14,15,10.10
2010,04,15,14,16,10.20
2010,04,15,14,17,10.20
2010,04,15,14,18,10.30
2010,04,15,14,19,10.30
2010,04,15,14,20,10.30
2010,04,15,14,21,10.30
2010,04,15,14,22,10.30
2010,04,15,14,23,10.30
2010,04,15,14,24,10.40
2010,04,15,14,25,10.40
2010,04,15,14,26,10.50
2010,04,15,14,27,10.50
2010,04,15,14,28,10.60
2010,04,15,14,29,10.60
2010,04,15,14,30,10.70
2010,04,15,14,31,10.70
2010,04,15,14,32,10.70
2010,04,15,14,33,10.80
2010,04,15,14,34,10.80
2010,04,15,14,35,10.80
2010,04,15,14,36,10.90
2010,04,15,14,37,10.90
2010,04,15,14,38,10.90
2010,04,15,14,39,10.90
2010,04,15,14,40,11.00
2010,04,15,14,41,11.10
2010,04,15,14,42,11.10
2010,04,15,14,43,11.20
2010,04,15,14,44,11.30
2010,04,15,14,45,11.40
2010,04,15,14,46,11.40
2010,04,15,14,47,11.40
2010,04,15,14,48,11.40
2010,04,15,14,49,11.40
2010,04,15,14,50,11.40
2010,04,15,14,51,11.40
2010,04,15,14,52,11.50
2010,04,15,14,53,11.50
2010,04,15,14,54,11.60
2010,04,15,14,55,11.60
2010,04,15,14,56,11.60
2010,04,15,14,57,11.70
2010,04,15,14,58,11.80
2010,04,15,14,59,11.80
2010,04,15,15,00,11.80
2010,04,15,15,01,11.70
2010,04,15,15,02,11.70
2010,04,15,15,03,11.70
2010,04,15,15,04,11.70
2010,04,15,15,05,11.70
2010,04,15,15,06,11.70
2010,04,15,15,07,11.70
2010,04,15,15,08,11.80
2010,04,15,15,09,11.80
2010,04,15,15,10,11.80
2010,04,15,15,11,11.80
2010,04,15,15,12,11.80
2010,04,15,15,13,11.80
2010,04,15,15,14,11.80
2010,04,15,15,15,11.80
2010,04,15,15,16,11.80
2010,04,15,15,17,11.80
2010,04,15,15,18,11.80
2010,04,15,15,19,11.80
2010,04,15,15,20,11.80
2010,04,15,15,21,11.80
2010,04,15,15,22,11.80
2010,04,15,15,23,11.90
2010,04,15,15,24,12.00
2010,04,15,15,25,12.10
2010,04,15,15,26,12.20
2010,04,15,15,27,12.30
2010,04,15,15,28,12.40
2010,04,15,15,29,12.50
2010,04,15,15,30,12.70
2010,04,15,15,31,12.80
2010,04,15,15,32,12.90
2010,04,15,15,33,13.10
2010,04,15,15,34,13.20
2010,04,15,15,35,13.30
2010,04,15,15,36,13.50
2010,04,15,15,37,13.70
2010,04,15,15,38,13.90
2010,04,15,15,39,14.00
2010,04,15,15,40,14.20
2010,04,15,15,41,14.30
2010,04,15,15,42,14.40
2010,04,15,15,43,14.50
2010,04,15,15,44,14.60
2010,04,15,15,45,14.60
2010,04,15,15,46,14.50
2010,04,15,15,47,14.50
2010,04,15,15,48,14.40
2010,04,15,15,49,14.40
2010,04,15,15,50,14.30
2010,04,15,15,51,14.30
2010,04,15,15,52,14.30
2010,04,15,15,53,14.30
2010,04,15,15,54,14.30
2010,04,15,15,55,14.30
2010,04,15,15,56,14.30
2010,04,15,15,57,14.30
2010,04,15,15,58,14.30
2010,04,15,15,59,14.40
2010,04,15,16,00,14.40
2010,04,15,16,01,14.50
2010,04,15,16,02,14.60
2010,04,15,16,03,14.50
2010,04,15,16,04,14.40
2010,04,15,16,05,14.40
2010,04,15,16,06,14.50
2010,04,15,16,07,14.60
2010,04,15,16,08,14.70
2010,04,15,16,09,14.70
2010,04,15,16,10,14.70
2010,04,15,16,11,14.70
2010,04,15,16,12,14.70
2010,04,15,16,13,14.70
2010,04,15,16,14,14.70
2010,04,15,16,15,14.70
2010,04,15,16,16,14.80
2010,04,15,16,17,14.80
2010,04,15,16,18,14.80
2010,04,15,16,19,14.80
2010,04,15,16,20,14.50
2010,04,15,16,21,14.30
2010,04,15,16,22,14.10
2010,04,15,16,23,14.10
2010,04,15,16,24,14.10
2010,04,15,16,25,14.10
2010,04,15,16,26,14.00
2010,04,15,16,27,13.90
2010,04,15,16,28,13.80
2010,04,15,16,29,13.60
2010,04,15,16,30,13.40
2010,04,15,16,31,13.30
2010,04,15,16,32,13.20
2010,04,15,16,33,13.10
2010,04,15,16,34,13.10
2010,04,15,16,35,13.10
2010,04,15,16,36,13.20
2010,04,15,16,37,13.20
2010,04,15,16,38,13.20
2010,04,15,16,39,13.20
2010,04,15,16,40,13.20
2010,04,15,16,41,13.20
2010,04,15,16,42,13.20
2010,04,15,16,43,13.20
2010,04,15,16,44,13.20
2010,04,15,16,45,13.20
2010,04,15,16,46,13.20
2010,04,15,16,47,13.20
2010,04,15,16,48,13.20
2010,04,15,16,49,13.20
2010,04,15,16,50,13.20
2010,04,15,16,51,13.20
2010,04,15,16,52,13.20
2010,04,15,16,53,13.20
2010,04,15,16,54,13.10
2010,04,15,16,55,13.20
2010,04,15,16,56,13.20
2010,04,15,16,57,13.20
2010,04,15,16,58,13.30
2010,04,15,16,59,13.30
2010,04,15,17,00,13.30
2010,04,15,17,01,13.30
2010,04,15,17,02,13.40
2010,04,15,17,03,13.40
2010,04,15,17,04,13.50
2010,04,15,17,05,13.50
2010,04,15,17,06,13.60
2010,04,15,17,07,13.60
2010,04,15,17,08,13.70
2010,04,15,17,09,13.80
2010,04,15,17,10,13.80
2010,04,15,17,11,13.90
2010,04,15,17,12,14.00
2010,04,15,17,13,14.00
2010,04,15,17,14,14.10
2010,04,15,17,15,14.10
2010,04,15,17,16,14.10
2010,04,15,17,17,14.10
2010,04,15,17,18,14.10
2010,04,15,17,19,14.00
2010,04,15,17,20,14.00
2010,04,15,17,21,13.90
2010,04,15,17,22,13.90
2010,04,15,17,23,13.90
2010,04,15,17,24,13.90
2010,04,15,17,25,13.90
2010,04,15,17,26,14.00
2010,04,15,17,27,14.10
2010,04,15,17,28,14.20
2010,04,15,17,29,14.30
2010,04,15,17,30,14.30
2010,04,15,17,31,14.30
2010,04,15,17,32,14.30
2010,04,15,17,33,14.30
2010,04,15,17,34,14.20
2010,04,15,17,35,14.20
2010,04,15,17,36,14.20
2010,04,15,17,37,14.20
2010,04,15,17,38,14.20
2010,04,15,17,39,14.20
2010,04,15,17,40,14.20
2010,04,15,17,41,14.20
2010,04,15,17,42,14.20
2010,04,15,17,43,14.30